Lid_Strength_Index
12 13 13 14 14 14 15 15 15 15 15 15 15 14 14 14 14 14 14 13 13 12 12 12 12 12 12 12 11 11 11 11
13 14 15 15 15 15 16 15 15 15 15 15 15 15 15 15 15 14 14 14 13 13 13 13 13 13 12 12 12 12 12 11
14 15 15 15 15 15 15 15 15 15 15 15 15 16 16 16 15 15 15 14 14 14 14 14 13 13 13 13 13 12 13 13
14 15 15 15 15 15 15 15 15 15 16 16 16 16 16 16 16 15 15 15 15 14 14 14 14 14 14 13 13 13 13 14
13 13 14 14 15 15 15 15 15 16 16 16 16 16 16 16 16 16 15 15 15 14 14 14 14 14 14 14 14 14 14 14
11 12 13 14 15 15 15 16 16 16 16 16 16 16 16 16 16 16 16 15 15 15 14 14 14 14 15 15 15 15 15 15
10 11 12 14 14 15 15 16 16 16 17 16 16 16 16 16 16 15 16 15 15 16 16 15 14 14 14 14 15 15 15 15
9 10 11 13 14 15 16 16 16 16 17 16 16 16 16 16 16 16 17 16 16 16 16 16 15 13 13 14 15 15 15 15
8 9 10 13 14 15 15 16 16 16 16 16 16 17 17 16 16 17 17 17 17 17 17 17 15 13 14 14 15 15 16 16
7 9 12 14 15 16 16 16 16 17 17 16 17 17 17 17 17 17 17 17 17 17 17 17 16 13 14 15 16 16 16 16
10 14 15 16 16 16 17 17 17 17 16 16 17 17 17 17 17 18 17 17 17 18 17 17 17 14 14 15 16 17 17 17
14 15 15 16 16 16 17 17 16 16 17 17 17 18 18 18 18 18 18 18 19 18 18 18 17 16 15 14 16 17 18 18
17 17 17 16 16 17 18 17 18 18 19 19 18 18 18 19 18 19 19 19 20 21 20 19 18 16 16 15 16 16 19 19
17 18 17 17 16 17 18 18 19 19 20 20 19 19 19 19 19 20 20 20 21 20 21 21 19 19 17 17 17 17 18 18
18 19 19 17 16 18 19 19 19 20 20 21 20 21 20 19 20 21 22 22 21 22 23 23 21 21 19 18 18 18 19 21
18 19 19 19 20 20 20 20 21 21 21 21 21 21 21 21 21 21 20 21 23 24 23 25 24 21 18 18 18 20 19 29
19 19 21 22 22 22 22 21 21 22 21 21 22 22 22 22 22 19 19 18 18 19 21 21 20 18 18 17 18 19 20 34
20 21 23 25 25 25 24 22 22 22 22 22 22 23 23 23 23 24 22 20 20 20 20 20 20 19 18 18 19 21 25 37
23 24 25 27 28 27 26 24 23 23 24 23 23 24 24 24 24 24 26 26 26 23 22 21 21 20 19 20 26 36 34 39
25 26 26 28 29 28 27 26 26 25 25 25 25 25 25 25 25 26 26 27 27 28 26 26 23 22 21 23 36 38 39 39